Overblog Suivre ce blog
Editer l'article Administration Créer mon blog
4 janvier 2012 3 04 /01 /janvier /2012 08:54

cyril-despres-dakar-2012.jpg

Classement général Moto dakar aprés la troisième étape

Rang Numéro Pilote/Equipage Equipe Marque - Modèle Temps Retard
1 002 DESPRES Cyril TEAM RED BULL KTM KTM - 450cc Rally 07:31:42  
2 001 COMA Marc KTM MRW RALLY DAKAR EAM KTM - 450 cc 07:41:54 00:10:12
3 014 CASTEU David TEAM YAMAHA RACING YAMAHA - 450 WRF Rally 07:48:58 00:17:16
4 004 LOPEZ Francisco GIOFIL APRILIA APRILIA - 450 RXV TUAREG 07:49:19 00:17:37
5 003 RODRIGUES Helder TEAM YAMAHA RACING YAMAHA - WRF 450 07:51:31 00:19:49
6 007 GONCALVES Paulo HUSQVARNA RALLYE TEAM BY SPEEDBRAIN Husqvarna - Rally 450 RR 07:57:42 00:26:00
7 027 PIZZOLITO Javier HONDA RACING ARGENTINA HONDA - CRF 450X 07:59:03 00:27:21
8 010 VILADOMS Jordi BORDONE-FERRARI KTM - Rally Replica 08:00:08 00:28:26
9 005 PEDRERO GARCIA Juan KTM MRW RALLY DAKAR EAM KTM - 450cc Rally 08:00:43 00:29:01
10 020 FARRES GUELL Gerard BORDONE-FERRARI KTM - 450 RALLY REPLICA 08:02:42 00:31:00
11 015 VERHOEVEN Frans SHERCO RALLY RAID - CROCOAVENTURES SHERCO - SR 450 08:03:06 00:31:24
12 034 BOTTURI ALESSANDRO BORDONE-FERRARI KTM - 450 RALLY REPLICA 08:06:40 00:34:58
13 016 PAIN Olivier TEAM YAMAHA RACING YAMAHA - 450 YZF Rally 08:12:18 00:40:36
14 032 SVITKO Stefan HANT LOGOMOTION SLOVAKIA KTM - 450 RR 08:13:33 00:41:51
15 025 GOUET Daniel TAMARUGAL HONDA RACING XC RALLY TEAM HONDA - CRF 450 X 08:18:18 00:46:36
16 021 AUBERT JOHNNY KTM RALLY FACTORY TEAM KTM - 450 RALLY 08:18:58 00:47:16
17 026 RODRIGUES FILHO Jose helio HUSQVARNA RALLYE TEAM BY SPEEDBRAIN HUQSVARNA - RALLY 450 RR 08:19:12 00:47:30
18 017 CZACHOR Jacek ORLEN TEAM KTM - 450 Replica 08:20:14 00:48:32
19 024 STANOVNIK Miran TEAM SUGAWARA KTM - 450 R 08:26:18 00:54:36
20 018 KNUIMAN Henk WIM MOTORS DAKAR KTM - 450 REPLICA 08:27:48 00:56:06
21 031 JAKES Ivan NAD RESS ADVENTURE TEAM BMW - G450RR 08:29:30 00:57:48
22 035 CECI Paolo BORDONE-FERRARI KTM - 450 RR 08:30:05 00:58:23
23 039 GYENES Emanuel VECTRA RACING KTM - 450 RR 08:30:47 00:59:05
24 022 DUCLOS Alain GIOFIL APRILIA APRILIA - RXV 4.5 Rally 08:32:29 01:00:47
25 082 GUINDANI Vincent HFP YAMAHA - YZR 450 08:33:09 01:01:27
26 113 FAGGOTTER Rodney HUSABERG RALLYE RACING AUSTRALIA HUSABERG - FE450 08:33:46 01:02:04
27 040 SERRADORI Mathieu   KTM - 450 Rally 08:33:47 01:02:05
28 043 PISANO Michael MP CONCEPT KTM - 450 RR 08:35:40 01:03:58
29 006 ULLEVALSETER Pal Anders TEAM ULLEVALSETER KTM - 450 R 08:38:00 01:06:18
30 012 PELLICER Jose Manuel HUSQVARNA RALLYE TEAM BY SPEEDBRAIN HUSQVARNA - Rally 450 RR 08:38:36 01:06:54
31 028 ZANOL FELIPE KTM BRASIL KTM - 450 Replica 08:45:22 01:13:40
32 008 FARIA Ruben TEAM RED BULL KTM KTM - 450 CC RALLY 08:46:32 01:14:50
33 110 BIRCH Christopher MEMO TOURS - ALFIE COX TEAM KTM - 450 Replica 08:49:27 01:17:45
34 053 RODRIGUEZ Claudio TAMARUGAL HONDA RACING XC RALLY TEAM HONDA - CRF 450 X 08:55:14 01:23:32
35 023 BARREDA BORT Joan HUSQVARNA RALLYE TEAM BY SPEEDBRAIN HUSQVARNA - Rally 450 RR 08:58:30 01:26:48
36 049 DABROWSKI Marek ORLEN TEAM KTM - 450 RR 08:59:46 01:28:04
37 033 BETHYS Thierry   YAMAHA - 450 YZF Rally 09:02:07 01:30:25
38 048 LIEFHEBBER Hans-jos   KTM - 450 RR 09:05:09 01:33:27
39 057 WILLEMSEN Daniel TEAM HONDA EUROPE HONDA - CRF 450 X 09:11:09 01:39:27
40 185 SANCHEZ MARCELO TEAM RPM KAWASAKI KAWASAKI - KLX 450 R 09:12:14 01:40:32
41 042 PROHENS Jaime TAMARUGAL HONDA RACING XC RALLY TEAM HONDA - CRF 450X RALLY 09:17:34 01:45:52
42 089 NASCIMENTO DENISIO PETROBRAS LUBRAX HONDA - CRF 450 09:17:47 01:46:05
43 148 GOMEZ Mauricio PACO GOMEZ RALLY TEAM YAMAHA - WR 450 09:19:43 01:48:01
44 173 MALO WILSON WILSON MALO KTM DEL ECUADOR KTM - 450 RALLY 2010 09:20:31 01:48:49
45 041 PROHENS Felipe TAMARUGAL HONDA RACING XC RALLY TEAM HONDA (Transformada) - CRF450X RALLY 09:20:59 01:49:17
46 060 WATT Stanley FRONT ROW GB / CRECENT KTM KTM - 450 RR 09:21:07 01:49:25
47 168 GUIRAL DEMIAN AVANT MOTOS HONDA GENUINE OIL HONDA - CRF 450X 09:32:44 02:01:02
48 081 SUESSE NED ADVRIDER/ NEDURO KTM - 450XCW 09:33:44 02:02:02
49 144 CURTIS Darryl MEMO TOURS - ALFIE COX TEAM KTM - 450 Replica 09:35:08 02:03:26
50 051 ARREDONDO Francisco TEAM GUATEMALA KTM - 450 RALLY 09:35:40 02:03:58
51 183 RODRIGUEZ Pablo HONDA RACING ARGENTINA HONDA - CRF450X 09:35:51 02:04:09
52 046 BIANCHI PRATA Pedro TEAM BIANCHI PRATA / VODAFONE HUSQUARNA - TE449 RALLY 09:37:16 02:05:34
53 064 SCHRÖDER DANIEL MEMO TOURS - ALFIE COX TEAM KTM - 450cc 09:38:05 02:06:23
54 164 DEMELCHORI DIEGO TEAM RPM KAWASAKI KAWASAKI - 2009 09:42:41 02:10:59
55 079 BOULANGER EDOUARD DAKAR CHALLENGE APRILIA - 450 RXV bicylindre 09:44:04 02:12:22
56 084 CARILLON Patrice   KTM - 450 CC 09:44:41 02:12:59
57 045 SANZ PLA-GILIBERT Eulalia GAS GAS GAS - GAS - EC 450 09:48:17 02:16:35
58 145 NUTTALL Dean MEMO TOURS - ALFIE COX TEAM KTM - 450 Replica 09:49:20 02:17:38
59 030 GUASCH Marc GAS GAS GAS - GAS - EC 450 09:50:23 02:18:41
60 169 HEINRICH DEL VALLE EDUARDO X-RAID TEAM KTM - 450 RALLY FACTORY 09:53:22 02:21:40
61 066 LORMAND Etienne ROUSSILL'HOTEL - HFP YAMAHA - 450 WRF 09:53:51 02:22:09
62 062 SCHWARZ David HUSABERG RALLYE RACING AUSTRALIA HUSABERG - FE450 09:57:13 02:25:31
63 138 LECOQ SEBASTIEN TEAM PERFORMANCE ENDURO YAMAHA - 450 YZFE 10:01:42 02:30:00
64 055 MERKIT Kemal TURKISH TEAM KTM - 450 RALLY 10:03:56 02:32:14
65 059 CIOTTI Filippo FRANCO PICCO RACING RIEJU - MRT 450 10:04:06 02:32:24
66 154 GAJDOSECH ROBERTO ANTONIO ATUEL MOTOS YAMAHA - WR 450 10:04:12 02:32:30
67 086 MUNK Jes X-RAGE RACING KTM - 450 10:06:25 02:34:43
68 077 PICCO Franco FRANCO PICCO RACING YAMAHA - WRF 450 10:08:15 02:36:33
69 098 BLONDEAU CHRISTOPHE TEAM FRANROC YAMAHA - YZF 450 10:08:36 02:36:54
70 184 SAKIR SENKALAYCI TURKISH TEAM KTM - 450 RALLY EXC 10:14:23 02:42:41
71 056 MENARD Jean-Christophe HFP YAMAHA - 450 YZF 10:14:36 02:42:54
72 063 SAGHMEISTER Gabor   KTM - 450 10:15:38 02:43:56
73 165 MULDER GEERT TEAM HONDA EUROPE HONDA - CFR 450 X 10:16:27 02:44:45
74 092 HAMARD Stephane REUNION RALLYE RAID KTM - 450 RR 10:17:11 02:45:29
75 114 FESANI ANDREA FRANCO PICCO RACING RIEJU - MOTO MRT450 10:18:27 02:46:45
76 181 RIOS FELIPE KTM PERU RALLY TEAM KTM - Rally Replica 10:19:01 02:47:19
77 061 MATTOS Dimas BRASIL MOTO TOUR KTM - 450 RR 10:20:49 02:49:07
78 058 PUERTAS HERRERA Miguel HIMOINSA DAKAR TEAM YAMAHA - 450 WR 10:24:32 02:52:50
79 071 BUTUZA Marcel BOANO HONDA - CRE F 450 X 10:24:37 02:52:55
80 087 MEILLAT Christophe C.M PROMO KAWASAKI - KLX 450 R 10:25:52 02:54:10
81 159 CHITTICK Jamie GHR HONDA HONDA - CRF450X 10:26:01 02:54:19
82 067 BALOOSHI MOHAMMED RED BULL KTM - 450 RR 10:26:26 02:54:44
83 149 CIPKA DUSAN SLOVAKIA TURBOTEAM ZATKO BMW - G450X 10:33:15 03:01:33
84 100 VESELY Jan CZECH DAKAR TEAM YAMAHA - WR 450F 10:34:11 03:02:29
85 068 BARROT David POWERBIKE YAMAHA IPONE YAMAHA - 450 IZF RALLY 10:38:16 03:06:34
86 122 PALANTE Eric WIM MOTORS RACING DIVISION KTM - 450 RR FREVA 10:39:13 03:07:31
87 080 PASCUAL Pablo oscar JINCHENG TEAM JINCHENG - JC450Y 10:41:49 03:10:07
88 177 VAN GEEL MARCO TEAM HONDA EUROPE HONDA - CFR 450 X 10:42:06 03:10:24
89 131 THEURIOT Herve REVIVAL AVENTURES YAMAHA - 450 WRF 10:42:14 03:10:32
90 065 LAZARD Laurent MOTO TEAM BY ELF YAMAHA - WR 450 10:45:39 03:13:57
91 072 GOUNON SERGE EMS KTM - 450 RR 10:54:51 03:23:09
92 074 KOFMAN Erik   KTM - 450 RR 10:56:19 03:24:37
93 029 BERGLUND Thomas HUSABERG RALLY TEAM SCANDINAVIA HUSABERG - FE 450 10:57:31 03:25:49
94 075 BUSIN Pablo MOTO TEAM BY ELF YAMAHA - 450 WR 10:57:49 03:26:07
95 116 GEOFFROY Christophe TB RACING HONDA - F 450 XE 11:01:03 03:29:21
96 091 TONETTI NICOLA TEAM BOANO HONDA - CRF 450 X 11:04:14 03:32:32
97 076 PEDERZOLI Claudio ON-OFF RACING TEAM YAMAHA - WR 450 11:06:31 03:34:49
98 107 BODINGER Ronnie HUSABERG FACTORY TEAM HUSABERG - FE 450 11:16:50 03:45:08
99 174 MARTÍNEZ Paco PACO MARTINEZ KAWASAKI - KX450 11:19:58 03:48:16
100 136 IGARIS GINTAUTAS   YAMAHA - WR450F 11:24:29 03:52:47
101 178 VAN WOERKUM JAN TEAM HONDA EUROPE HONDA - CFR 450 X 11:27:06 03:55:24
102 093 GOMEZ Jorge VEMOTOR CANARIAS Husqvarna - 450cc 11:35:03 04:03:21
103 151 BEALUSTEGUI Juan Manuel AL LIMITE DAKAR 2012 YAMAHA - WR 450 F 12:01:11 04:29:29
104 170 KREIDL FERDINAND KLS ADVANCE RALLYE RAID TEAM KTM - 450 Replica 12:03:20 04:31:38
105 106 EMBRO JAMES MEMO TOURS - ALFIE COX TEAM KTM - 450 RALLY 12:09:26 04:37:44
106 150 BELAUSTEGUI Luis FREEDOM RALLY RACING KTM - SX 150 12:10:40 04:38:58
107 102 ALAN Eduardo ELF ARGENTINA Yamaha - WR 450 12:12:41 04:40:59
108 126 MUTELET Olivier AL DESERT YAMAHA - 450 WRF 12:13:57 04:42:15
109 104 DE BENEDICTIS NETO Vicente   Beta - RR 450 12:14:06 04:42:24
110 117 GHITTI Federico RALLY RACING KTM - 450 RALLY 12:15:38 04:43:56
111 157 CERDERA SERGIO TEAM RPM KAWASAKI KAWASAKI - KLX 450 12:16:45 04:45:03
112 120 ILLANES Rodrigo TARAPACA RALLY TEAM Husqvarna - TE 449 12:23:05 04:51:23
113 096 CID DE LA PAZ Pablo PCP ASISTENCIA / MED BETA - RR 450 12:23:11 04:51:29
114 050 SALVATIERRA Juan Carlos GHR HONDA HONDA - CRF450X 12:23:52 04:52:10
115 172 LUCCHESE MANUEL HUSABERG FACTORY TEAM HUSABERG - FE 450 RALLY 12:27:05 04:55:23
116 108 STEVENSON Iain MEMO TOURS - ALFIE COX TEAM KTM - 450 RALLY 12:28:38 04:56:56
117 112 GUYOMARC?H Yannick SCE PERFORMANCE / ASA POMPIERS DE PARIS YAMAHA - WRF 12:31:58 05:00:16
118 109 BUDWEG ARNDT BRASIL MOTO TOUR KTM - 450 RR 12:33:38 05:01:56
119 182 ZATKO JAN SLOVAKIA TURBOTEAM ZATKO BMW - G450X 12:37:29 05:05:47
120 140 REINIKE MARCO MARCO REINIKE KTM - 450 RALLY REPLICA 12:40:24 05:08:42
121 073 BONY BRUNO EMS KTM - 450 RR 12:41:26 05:09:44
122 128 ANO Julio TEAM NORMAND RAID YAMAHA - WRF 450 12:41:26 05:09:44
123 097 LAGRIVE MATTHIEU TEAM YAMAHA RACING YAMAHA - WR 450 cc Rally 12:45:24 05:13:42
124 158 VELLUTINO Carlo PERUANOS AL DAKAR KTM - 450 EXC 2011 12:55:23 05:23:41
125 099 CHERPIN Pierre   KTM - 450 RR 12:57:57 05:26:15
126 176 RAAF Greg MEMO TOURS - ALFIE COX TEAM KTM - 450 Replica 12:59:16 05:27:34
127 090 DIGUIET Gilles   KTM - 450 CC 13:00:23 05:28:41
128 095 MAZET Jean-Claude JCM RALLYE RAID KTM - 450 RR 13:04:30 05:32:48
129 115 BASSI GUSTAVO JVO RAGING YAMAHA PERGAMINO MOTO YAMAHA - WR 450 13:08:15 05:36:33
130 129 DEPOORTER Philippe WIM MOTORS DAKAR KTM - 450 13:20:56 05:49:14
131 069 PAYEN Hugo   YAMAHA - 450 WRF 13:26:17 05:54:35
132 111 ESPINASSE SYLVAIN SHERCO RALLY RAID - CROCOAVENTURES SHERCO - SR 450 13:28:43 05:57:01
133 152 TER BEEK RONALD GHR HONDA HONDA - CFR 450 X 13:32:39 06:00:57
134 124 TARLINGTON Craig WARTHOG RALLYE TEAM KTM - 450 RALLY 13:33:55 06:02:13
135 105 BARRON Jacques PERUANOS AL DAKAR KTM - 450 EXL 13:40:47 06:09:05
136 094 WEI Guanghui JINCHENG TEAM JINCHENG - JC 450Y 13:48:50 06:17:08
137 135 SCOTT-WILLIAMS Neil MEMO TOURS - ALFIE COX TEAM KTM - 450 Replica 13:52:11 06:20:29
138 125 ASTORI Gianernesto ABC RALLY ACTION TEAM KTM - 450 RR 14:10:27 06:38:45
139 179 PETRONE Sergio MISION EZEIZA DAKAR BETA - 450 14:19:30 06:47:48
140 127 KARATHANASSIS THEOCHARIS   YAMAHA - 450 14:38:34 07:06:52
141 121 DAVIDSON Mark FREEDOM RALLY RACING KTM - 450 RALLYE REPLICA 15:08:56 07:37:14
142 130 DETANG Dominique SHERCO RALLY RAID - CROCOAVENTURES SHERCO - SR 450 15:16:56 07:45:14
143 155 GALLO ANDREA FRANCO PICCO RACING YAMAHA - WRF 450 15:46:46 08:15:04
144 180 PICKERING Jago DESERT ROSE RACING KTM - 450EXC 16:40:30 09:08:48
145 147 STANFIELD Michael FREEDOM RALLY RACING KTM - 450 EXC 16:43:18 09:11:36
146 156 BARBERY Juan Jose MOTOMAX-HELMET RALLY TEAM BETA - RR 450 16:48:07 09:16:25
147 133 SCHNEIDER CHARLES SHERCO RALLY RAID - CROCOAVENTURES SHERCO - SR 450 18:18:00 10:46:18
148 162 FLAMBERT OLIVIER TEAM AL DESERT YAMAHA - 450 WR 19:25:44 11:54:02
149 153 BEKTAS SELCUK TURKISH TEAM KTM - 450 RALLY EXC 19:28:18 11:56:36
150 187 YOUNGER TOBIAS DESERT ROSE RACING KTM - 450EXC 19:46:48 12:15:06
151 142 CAREVIC Andrés INSTITUTO NACIONAL DEL DEPORTE YAMAHA - 450 WR 20:21:57 12:50:15
152 161 ORLANDO SALVATORE TEAM AL DESERT YAMAHA - 450WRF JVO 20:22:14 12:50:32
153 160 HAMEL ERIC   YAMAHA - 450 WRF 20:25:29 12:53:47

Partager cet article

Repost 0
Published by jack sellertaux - dans dakar 2015
commenter cet article

commentaires